Location: Peterborough
(44.3091°N, 78.3197°W)
Time: 11:19:49
(UTC-04:00)

Transit 2A - Pass Details

Date: 22 March 2023
Orbit: 591 x 964 km, 66.7° (Epoch: 27 May)

Event Time Altitude Azimuth Distance (km) Brightness Sun altitude
Rises 05:46:03 0° 171° (S) 3,142 9.1 -16.2°
Reaches altitude 10° 05:48:45 10° 156° (SSE) 2,291 8.5 -15.7°
Maximum altitude 05:52:49 23° 105° (ESE) 1,670 8.5 -15.0°
Drops below altitude 10° 05:57:12 10° 56° (NE) 2,500 9.9 -14.3°
Sets 06:00:16 0° 43° (NE) 3,505 10.4 -13.7°
